Miscellaneous Local Product
Issued by NWS North Platte, NE

Home | Current Version | Previous Version | Text Only | Print | Product List | Glossary On
Versions: 1 2 3 4 5 6 7 8 9 10 11 12 13 14 15 16 17 18 19 20 21 22 23 24 25 26 27 28 29 30 31 32 33 34 35 36 37 38 39 40 41 42 43 44 45 46 47 48 49 50
000
AXUS43 KLBF 312310
MISLBF


WESTERN AND NORTH CENTRAL NEBRASKA HOURLY WEATHER ROUNDUP
NATIONAL WEATHER SERVICE NORTH PLATTE NE
600 PM CDT FRI JUL 31 2015

***STATIONS NOT REPORTING VARIABLES SUCH AS SKY/WEATHER OR
PRESSURE ARE PROVIDED BY THE NEBRASKA DEPARTMENT OF
ROADS...RAWS...AND APRS NETWORKS...AND ARE NOT UNDER
NATIONAL WEATHER SERVICE QUALITY CONTROL***

...OBSERVATIONS IN AND NEAR THE EASTERN PANHANDLE OF NEBRASKA...

CITY           SKY/WX    TMP DP  RH WIND       PRES   REMARKS
PINE RIDGE     SUNNY     93  49  22 N5        30.12F HX  90
CHADRON        SUNNY     92  52  25 S12       30.10F
ALLIANCE       MOSUNNY   82  54  37 E10       30.17F
SIDNEY         PTSUNNY   90  46  21 SE6       30.19F
BIG SPRINGS      N/A     88  60  38 E5          N/A
$$

...OBSERVATIONS IN NORTH CENTRAL NEBRASKA...

CITY           SKY/WX    TMP DP  RH WIND       PRES   REMARKS
VALENTINE      SUNNY     95  44  17 N9        30.09F HX  91
THEDFORD       SUNNY     92  56  29 CALM      30.12F HX  90
AINSWORTH      SUNNY     90  58  34 E7        30.09F
O`NEILL        MOSUNNY   89  65  44 E9        30.08S HX  90
ORD            PTSUNNY   70  65  84 SE7       30.07F
BROKEN BOW     MOSUNNY   92  61  35 W9        30.08F HX  92
SPRINGVIEW       N/A     92  60  33 E3          N/A  HX  91
CHAMBERS         N/A     92  62  36 E9          N/A  HX  92
EWING            N/A     87  69  54 E3G13       N/A  HX  91
$$

...OBSERVATIONS IN SOUTHWEST NEBRASKA AND FAR NORTHEAST COLORADO...

CITY           SKY/WX    TMP DP  RH WIND       PRES   REMARKS
WRAY           FAIR      95  46  18 SW5       30.14F HX  91
IMPERIAL       SUNNY     93  47  20 E7        30.12F
OGALLALA       MOSUNNY   89  56  33 CALM      30.13F
NORTH PLATTE   MOSUNNY   89  60  37 E8        30.10F
MCCOOK         SUNNY     95  54  25 SW6       30.08F HX  93
LEXINGTON      MOSUNNY   93  61  34 S8        30.07F HX  93
PAXTON           N/A     90  62  38 S3          N/A  HX  90
BRADY            N/A     92  62  36 CALM        N/A  HX  92
CALLAWAY         N/A     88  70  54 NW8         N/A  HX  92
$$

...NORTH PLATTE AREA...

CITY           SKY/WX    TMP DP  RH WIND       PRES   REMARKS
AIRPORT        MOSUNNY   89  60  37 E8        30.10F
DOWNTOWN         N/A     89  61  38 E3          N/A
SANDRIDGE        N/A     91  60  35 CALM        N/A  HX  90
HILLCREST        N/A     89  58  34 E10         N/A
$$

...SOME WEATHER OBSERVATIONS FROM AROUND THE REGION...

CITY           SKY/WX    TMP DP  RH WIND       PRES   REMARKS
DENVER         PTSUNNY   89  45  21 SE6G22    30.23F
LARAMIE        MOSUNNY   77  44  30 E18G24    30.35F
CHEYENNE       SUNNY     80  49  33 SE10      30.30F
SCOTTSBLUFF    MOSUNNY   89  47  23 S13       30.16F
RAPID CITY     SUNNY     83  55  38 NE9       30.13F
PIERRE         SUNNY     91  46  21 N7        30.05F
WINNER         FAIR      93  53  25 NE10      30.07F HX  90
SIOUX FALLS    MOSUNNY   85  55  35 N3        30.07S
OMAHA          CLOUDY    85  78  80 N5        30.03S HX  96
GRAND ISLAND   MOSUNNY   75  59  57 NE26G41   30.13R
KANSAS CITY    MOSUNNY   87  69  54 CALM      30.06F HX  91
WICHITA        PTSUNNY   90  69  50 S6        30.07F HX  94
HAYS           SUNNY     91  59  33 S9        30.08F HX  90
LIBERAL        MOSUNNY   84  61  45 E8        30.13S
GOODLAND       MOSUNNY   89  55  31 S9        30.16F
$$



USA.gov is the U.S. government's official web portal to all federal, state and local government web resources and services.